Notices

What's New in latest Release from April 7th, 2021:

- Updated Glossary, including Speed of Maximum Gust, and Total Hourly Precipitation

- Updated national and regional climate services offices contacts and prices information

- Addition of station inventory lists for 1981-2010, 1971-2000, and 1961-1990 Normals.

If you haven't already, please take our survey and provide feedback about our website: https://eccc.sondage-survey.ca/f/LanguageSelection.aspx?s=442ca660-fcf1-47c0-95a9-59707d6fd709

Hourly Data Report for October 10, 2019

CARBERRY CS
MANITOBA
Current Station Operator: ECCC - MSC

49°54'20.900" N
99°21'26.800" W
383.50 m
5010547
71170
WZE

Download Data

Hourly Data (October 2019)
Hourly Data Report for October 10, 2019
TIME
LST
Temp Definition
°C
Dew Point Definition
°C
Rel Hum Definition
%
Precip. Amount Definition
mm

Wind Dir Definition
10's deg

Wind Spd Definition
km/h
Visibility Definition
km
Stn Press Definition
kPa
Hmdx Definition


Wind Chill Definition


Weather Definition


00:00 -0.4 -0.4 100 0.3 34 24   97.70   -6 LegendNANA
01:00 -0.5 -0.5 100 0.3 35 23   97.70   -6 LegendNANA
02:00 -0.6 -0.6 100 0.2 35 20   97.65   -6 LegendNANA
03:00 -0.5 -0.7 99 0.0 34 21   97.75   -6 LegendNANA
04:00 -0.7 -0.7 100 0.2 35 20   97.64   -6 LegendNANA
05:00 -0.8 -0.8 100 0.0 35 18   97.72   -6 LegendNANA
06:00 -0.9 -0.9 100 0.5 35 18   97.69   -6 LegendNANA
07:00 -0.8 -0.9 100 0.3 35 18   97.71   -6 LegendNANA
08:00 -0.5 -0.5 100 0.2 35 21   97.72   -6 LegendNANA
09:00 -0.2 -0.3 100 0.2 1 21   97.73   -6 LegendNANA
10:00 -0.7 -0.8 99 0.2 36 19   97.78   -6 LegendNANA
11:00 -0.6 -0.7 99 0.2 35 19   97.67   -6 LegendNANA
12:00 0.0 -1.6 89 1.6 36 19   97.63   -5 LegendNANA
13:00 0.2 -1.1 91 0.2 36 17   97.63     LegendNANA
14:00 0.2 -0.5 95 0.3 36 18   97.57     LegendNANA
15:00 0.2 0.1 100 0.0 1 13   97.56     LegendNANA
16:00 -0.1 -0.1 100 0.3 1 18   97.51   -5 LegendNANA
17:00 -0.2 -0.2 100 0.3 36 15   97.50   -5 LegendNANA
18:00 -0.2 -0.2 100 0.2 35 18   97.46   -5 LegendNANA
19:00 -0.6 -0.6 100 0.2 35 16   97.47   -5 LegendNANA
20:00 -0.7 -0.8 99 0.3 35 21   97.39   -6 LegendNANA
21:00 -0.8 -1.0 99 0.0 34 22   97.35   -7 LegendNANA
22:00 -1.1 -1.9 94 0.0 34 28   97.29   -8 LegendNANA
23:00 -1.1 -2.3 91 0.2 34 29   97.22   -8 LegendNANA

Notes on Data Quality.

Legend

  • E = Estimated
  • M = Missing
  • NA = Not Available*
  • [empty] = Indicates an unobserved value
Date modified: